Location: Unspecified
(0.0000°N, 0.0000°E)
Time: 02:34:18
(UTC+02:00)

ARIANE 5 R/B - Visible Passes

Search period start: 28 April 2015 00:00
Search period end: 08 May 2015 00:00
Orbit: 666 x 38437 km, 6.6° (Epoch: 27 April)

Date Brightness Start Highest point End Pass type
(mag) Time Alt. Az. Time Alt. Az. Time Alt. Az.
28 Apr 6.9 04:41:35 61° W 05:00:41 85° N 15:29:43 10° E visible
29 Apr 7.3 03:46:54 86° WNW 03:48:37 88° N 14:31:43 10° E visible
30 Apr 7.4 02:52:13 68° E 02:52:13 68° E 13:33:09 10° E visible
01 May 7.7 01:57:31 46° E 01:57:31 46° E 12:33:39 10° E visible
02 May 8.1 01:02:50 26° E 01:02:50 26° E 11:32:42 10° E visible
03 May 8.4 00:08:10 11° E 00:08:10 11° E 10:29:18 10° E visible
03 May 8.4 00:08:08 11° E 00:08:08 11° E 00:09:10 10° E visible
04 May 3.7 21:44:59 10° WSW 21:47:47 36° SSW 21:47:47 36° SSW visible
04 May 3.7 21:45:00 10° WSW 21:47:51 37° SSW 21:47:51 37° SSW visible
05 May 3.5 20:46:23 10° WSW 20:50:42 37° S 20:53:04 19° ESE visible
05 May 3.5 20:46:24 10° WSW 20:50:42 37° S 20:53:09 18° ESE visible
